Simultaneous Nadir Overpasses (SNOs) Predictions

Prediction of SNOs between METOP-A and NOAA-19 Satellite Orbit:

Table of predicted SNOs for the next 14.0 days since TLE Epoch: 1/26/2018
Index Date (METOP-A) Time (METOP-A) Lat,Lon (METOP-A) SZA (METOP-A ) Date (NOAA-19) Time (NOAA-19) Lat,Lon (NOAA-19) SZA (NOAA-19 ) Distance(km) Time Diff (sec)
1 02/01/2018 01:26:00 78.35, 166.99 95.49 02/01/2018 01:24:52 78.34, 164.31 95.44 60.12 68
2 02/01/2018 02:16:47 -78.12, -26.94 84.78 02/01/2018 02:15:51 -78.10, -26.96 84.81 2.71 56
3 02/01/2018 03:07:28 78.09, 140.24 95.19 02/01/2018 03:06:47 78.11, 140.24 95.20 1.94 41
4 02/01/2018 03:58:09 -78.10, -52.39 84.82 02/01/2018 03:57:52 -78.09, -52.39 84.84 1.69 17
5 02/01/2018 04:48:50 78.07, 114.79 95.14 02/01/2018 04:48:48 78.10, 114.80 95.17 2.94 2
6 02/01/2018 05:39:31 -78.08, -77.84 84.86 02/01/2018 05:39:53 -78.07, -77.83 84.87 0.70 22
7 02/01/2018 06:30:12 78.05, 89.35 95.10 02/01/2018 06:30:49 78.09, 89.37 95.14 3.98 37
8 02/01/2018 07:20:53 -78.06,-103.28 84.91 02/01/2018 07:21:54 -78.06,-103.26 84.90 0.51 61
9 02/01/2018 08:11:35 77.99, 63.69 95.02 02/01/2018 08:12:48 78.00, 64.37 95.04 15.72 73




NCC Satellite Simultaneous Nadir Overpasses (SNOs) Prediction Service
